Spokane Fairchild, WA
on Wednesday, January 23, 2013

Wednesday
Previous Day Next Day
Daily Summary
 ActualAverage (KGEG)Record (KGEG)
Temperature
Mean Temperature °F 31°F  
Max Temperature 32°F 36°F 53°F (1919)
Min Temperature 20°F 26°F -19°F (1969)
Degree Days
Heating Degree Days 39 34  
Month to date heating degree days 827  
Since 1 July heating degree days 3661  
Cooling Degree Days 0 0  
Month to date cooling degree days 0  
Year to date cooling degree days 0  
Moisture
Dew Point 27°F   
Average Humidity 100    
Maximum Humidity 100    
Minimum Humidity 100    
Precipitation
Precipitation 0.00 in 0.05 in 1.36 in (1882)
Month to date precipitation 1.39  
Year to date precipitation 1.39  
Snow
Snow 0.00 in 0.30 in 7.40 in (1965)
Month to date snowfall 9.2  
Since 1 July snowfall 31.3  
Snow Depth 3.00 in   
Wind
Wind Speed 6 mph   
Max Wind Speed 22 mph   
Max Gust Speed mph   
Visibility 8 miles   
Events Rain , Snow   

Key: T is trace of precipitation, MM is missing value
Source: NWS Daily Summary
Time(PST)TemperatureDew PointHumidity Pressure Visibility Wind DirectionWind SpeedGust SpeedPrecipitationEvents Conditions
12:55 AM 21.2°F 21.2°F 100% 30.18 in 8.0 miles NE 3.5 mph - N/A   Scattered Clouds
1:55 AM 20.8°F 20.8°F 100% 30.21 in 10.0 miles North 3.5 mph - N/A   Mostly Cloudy
2:29 AM 21.2°F 21.2°F 100% 30.19 in 10.0 miles NNE 4.6 mph - N/A   Overcast
2:55 AM 21.7°F 21.7°F 100% 30.17 in 10.0 miles NNE 5.8 mph - N/A   Mostly Cloudy
3:58 AM 23.0°F 23.0°F 100% 30.19 in 10.0 miles North 4.6 mph - N/A   Overcast
4:58 AM 22.1°F 22.1°F 100% 30.15 in 10.0 miles NNE 3.5 mph - N/A   Overcast
5:58 AM 21.7°F 21.7°F 100% 30.15 in 10.0 miles NNE 4.6 mph - N/A   Overcast
6:58 AM 20.7°F 20.7°F 100% 30.13 in 10.0 miles NNE 4.6 mph - N/A   Mostly Cloudy
7:58 AM 20.3°F 20.3°F 100% 30.12 in 10.0 miles NE 4.6 mph - N/A   Partly Cloudy
8:27 AM 23.0°F 23.0°F 100% 30.00 in 10.0 miles NNE 5.8 mph - N/A   Mostly Cloudy
8:32 AM 23.0°F 23.0°F 100% 30.01 in 10.0 miles NE 5.8 mph - N/A   Mostly Cloudy
8:58 AM 22.5°F 22.5°F 100% 30.11 in 10.0 miles NNE 4.6 mph - 0.00 in   Clear
9:40 AM 23.0°F 23.0°F 100% 30.00 in 10.0 miles NE 4.6 mph - N/A   Clear
9:52 AM 23.0°F 23.0°F 100% 30.00 in 10.0 miles NNE 4.6 mph - N/A   Clear
9:58 AM 23.7°F 23.7°F 100% 30.11 in 10.0 miles NNE 4.6 mph - 0.00 in   Clear
10:31 AM 24.8°F 24.8°F 100% 29.99 in 10.0 miles NNE 4.6 mph - N/A   Clear
10:37 AM 24.8°F 24.8°F 100% 29.99 in 10.0 miles NE 5.8 mph - N/A   Clear
10:58 AM 25.3°F 25.3°F 100% 30.09 in 10.0 miles NNE 10.4 mph - 0.00 in   Overcast
11:06 AM 26.6°F 26.6°F 100% 29.98 in 10.0 miles NE 11.5 mph - N/A   Overcast
11:18 AM 26.6°F 26.6°F 100% 29.98 in 10.0 miles NE 10.4 mph - N/A   Overcast
11:36 AM 26.6°F 26.6°F 100% 29.96 in 10.0 miles NE 12.7 mph - N/A   Overcast
11:46 AM 26.6°F 26.6°F 100% 29.97 in 10.0 miles NNE 9.2 mph - N/A   Overcast
11:58 AM 26.4°F 26.4°F 100% 30.06 in 10.0 miles NNE 10.4 mph - 0.00 in   Overcast
12:58 PM 27.3°F 27.3°F 100% 30.03 in 10.0 miles North 6.9 mph - N/A   Overcast
1:56 PM 28.4°F 28.4°F 100% 29.93 in 10.0 miles NNW 2.3 mph - N/A   Scattered Clouds
1:59 PM 27.7°F 27.7°F 100% 30.04 in 10.0 miles NNW 1.2 mph - N/A   Scattered Clouds
2:14 PM 28.4°F 28.4°F 100% 29.94 in 10.0 miles West 1.2 mph - N/A   Clear
2:48 PM 28.4°F 28.4°F 100% 29.93 in 10.0 miles ESE 2.3 mph - N/A Snow Light Snow
2:58 PM 28.2°F 28.2°F 100% 30.02 in 5.0 miles NNW 3.5 mph - 0.00 in Snow Light Snow
3:03 PM 28.4°F 28.4°F 100% 29.92 in 1.5 miles North 3.5 mph - N/A Snow Light Snow
3:08 PM 28.4°F 28.4°F 100% 29.91 in 1.8 miles NNE 5.8 mph - N/A Rain Light Freezing Rain
3:13 PM 28.4°F 28.4°F 100% 29.90 in 3.0 miles NNE 8.1 mph - N/A Rain Light Freezing Rain
3:15 PM 28.4°F 28.4°F 100% 29.90 in 5.0 miles NNE 8.1 mph - N/A Rain Light Freezing Rain
3:20 PM 28.4°F 28.4°F 100% 29.91 in 6.0 miles North 6.9 mph - N/A Rain Light Freezing Rain
3:43 PM 30.2°F 30.2°F 100% 29.92 in 8.0 miles NNE 3.5 mph - N/A Rain Light Freezing Rain
3:44 PM 30.2°F 30.2°F 100% 29.93 in 8.0 miles NNE 3.5 mph - N/A Snow Light Snow
3:54 PM 28.4°F 28.4°F 100% 29.94 in 2.0 miles NE 2.3 mph - N/A Snow Light Snow
3:58 PM 28.4°F 28.4°F 100% 30.03 in 1.8 miles ENE 2.3 mph - 0.00 in Snow Light Snow
4:03 PM 28.4°F 28.4°F 100% 29.94 in 1.0 miles NE 3.5 mph - N/A Snow Light Snow
4:28 PM 28.4°F 28.4°F 100% 29.91 in 1.2 miles NE 9.2 mph - N/A Snow Light Snow
4:33 PM 28.4°F 28.4°F 100% 29.91 in 2.0 miles NE 6.9 mph - N/A Snow Light Snow
4:38 PM 28.4°F 28.4°F 100% 29.91 in 5.0 miles ENE 9.2 mph - N/A Snow Light Snow
4:39 PM 28.4°F 28.4°F 100% 29.91 in 6.0 miles ENE 9.2 mph - N/A Rain Light Freezing Rain
4:58 PM 29.1°F 29.1°F 100% 30.01 in 10.0 miles NE 10.4 mph - 0.00 in Rain Light Freezing Rain
5:08 PM 28.4°F 28.4°F 100% 29.92 in 10.0 miles ENE 10.4 mph - N/A Rain Light Freezing Rain
5:14 PM 28.4°F 28.4°F 100% 29.92 in 10.0 miles ENE 8.1 mph - N/A Rain Light Freezing Rain
5:19 PM 28.4°F 28.4°F 100% 29.92 in 10.0 miles ENE 8.1 mph - N/A Rain Light Freezing Rain
5:20 PM 28.4°F 28.4°F 100% 29.92 in 10.0 miles NE 6.9 mph - N/A Rain Light Freezing Rain
5:25 PM 28.4°F 28.4°F 100% 29.91 in 10.0 miles NE 8.1 mph - N/A Rain Light Freezing Rain
5:26 PM 28.4°F 28.4°F 100% 29.91 in 10.0 miles NE 8.1 mph - N/A Rain Light Freezing Rain
5:31 PM 28.4°F 28.4°F 100% 29.91 in 10.0 miles NE 8.1 mph - N/A Rain Light Freezing Rain
5:33 PM 30.2°F 30.2°F 100% 29.91 in 10.0 miles NE 8.1 mph - N/A   Mostly Cloudy
5:38 PM 30.2°F 30.2°F 100% 29.90 in 10.0 miles NE 9.2 mph - N/A   Mostly Cloudy
5:42 PM 30.2°F 30.2°F 100% 29.90 in 10.0 miles NNE 8.1 mph - N/A Rain Light Freezing Rain
5:58 PM 29.5°F 29.5°F 100% 29.98 in 10.0 miles NE 9.2 mph - 0.00 in Rain Light Freezing Rain
6:03 PM 30.2°F 30.2°F 100% 29.89 in 10.0 miles NE 9.2 mph - N/A Rain Light Freezing Rain
6:13 PM 30.2°F 30.2°F 100% 29.88 in 9.0 miles NE 9.2 mph - N/A Rain Light Freezing Rain
6:18 PM 30.2°F 30.2°F 100% 29.87 in 10.0 miles NE 9.2 mph - N/A Rain Light Freezing Rain
6:23 PM 30.2°F 30.2°F 100% 29.87 in 10.0 miles NE 8.1 mph - N/A Rain Light Freezing Rain
6:36 PM 30.2°F 30.2°F 100% 29.88 in 10.0 miles NE 8.1 mph - N/A   Freezing Rain
6:52 PM 30.2°F 30.2°F 100% 29.88 in 10.0 miles NE 6.9 mph - N/A   Mostly Cloudy
6:58 PM 30.2°F 30.2°F 100% 29.97 in 10.0 miles NE 4.6 mph - 0.00 in Rain Light Freezing Rain
7:04 PM 32.0°F 32.0°F 100% 29.88 in 10.0 miles NE 6.9 mph - N/A Rain Light Freezing Rain
7:58 PM 30.9°F 30.9°F 100% 29.97 in 10.0 miles East 4.6 mph - 0.00 in Rain Light Freezing Rain
8:58 PM 31.6°F 31.6°F 100% 30.00 in 6.0 miles SSW 11.5 mph - 0.00 in Rain Light Freezing Rain
9:00 PM 32.0°F 32.0°F 100% 30.01 in 9.0 miles SSW 13.8 mph - N/A Rain Light Freezing Rain
9:31 PM 26.6°F 26.6°F 100% 29.95 in 10.0 miles SSW 21.9 mph - N/A Rain Light Freezing Rain
9:35 PM 26.6°F 26.6°F 100% 29.95 in 10.0 miles SSW 18.4 mph - N/A Rain Light Freezing Rain
9:38 PM 26.6°F 26.6°F 100% 29.95 in 10.0 miles SSW 18.4 mph - N/A   Freezing Rain
9:58 PM 24.4°F 24.4°F 100% 30.06 in 6.0 miles SW 18.4 mph - 0.00 in Rain Light Freezing Rain
10:41 PM 23.0°F 23.0°F 100% 30.08 in 8.0 miles SSW 9.2 mph - N/A   Light Freezing Drizzle
10:58 PM 22.8°F 22.8°F 100% 30.08 in 8.0 miles SSW 10.4 mph - 0.00 in   Light Freezing Drizzle
11:14 PM 23.0°F 23.0°F 100% 30.10 in 8.0 miles SSW 11.5 mph - N/A   Overcast
11:58 PM 22.3°F 22.3°F 100% 30.12 in 9.0 miles SSW 11.5 mph - 0.00 in   Overcast
Moon Phase
Jan. 23 Jan. 26 Feb. 03 Feb. 10 Feb. 17
Sunrise:07:27 AM (PST) Moon Rise:01:49 PM (PST)
Sunset:04:38 PM (PST) Moon Set:04:46 AM (PST)

Copyright © 2014 The Weather Underground, Inc.